Home   Weather   Washington Junction   Past weeks
Flag for USA

Past Weather in Washington Junction, Maryland, USA — Yesterday and Last 2 Weeks

Now
39 °F

Mostly cloudy.


Feels Like: 33 °F
Forecast: 40 / 32 °F
Wind: 9 mph from Southeast

Location: Reagan National Airport

Current Time: Jan 19, 2019 at 11:35:42 am

Latest Report: Jan 19, 2019 at 10:52 am


Visibility: 8 mi

Pressure: 30.21 "Hg

Humidity: 73%

Dew Point: 31 °F

Location of Washington JunctionLocation

Past Weather in Washington Junction — Graph

°F

Washington Junction Temperature Yesterday

Maximum temperature yesterday: 39 °F (at 3:52 pm)
Minimum temperature yesterday: 34 °F (at 12:21 am)
Average temperature yesterday: 36 °F

High & Low Weather Summary for the Past Weeks

 TemperatureHumidityPressure
High58 °F (Jan 8, 5:52 pm)93% (Jan 5, 1:52 am)30.58 "Hg (Jan 5, 1:52 am)
Low24 °F (Jan 16, 4:52 am)34% (Jan 11, 1:52 pm)29.48 "Hg (Jan 5, 6:52 am)
Average38 °F67%30.15 "Hg
* Reported Jan 4 9:52 am — Jan 19 9:52 am, Washington Junction. Weather by CustomWeather, © 2019

Note: Actual official high and low records may vary slightly from our data, if they occured in-between our weather recording intervals... More about our weather records

Advertising

Washington Junction Weather History for the Previous 24 Hours

Scroll right to see more
 ConditionsComfort  
Time TempWeatherWind HumidityBarometerVisibility
9:52 am
Sat, Jan 19
39 °FOvercast.6 mph76%30.23 "Hg9 mi
8:52 am39 °FOvercast.5 mph79%30.22 "Hg8 mi
7:52 am39 °FOvercast.5 mph79%30.21 "Hg8 mi
6:52 am39 °FOvercast.3 mph79%30.20 "Hg9 mi
5:52 am39 °FOvercast.3 mph79%30.19 "Hg10 mi
4:52 am39 °FOvercast.3 mph79%30.19 "Hg10 mi
3:52 am38 °FOvercast.No wind86%30.20 "Hg8 mi
2:52 am38 °FOvercast.No wind86%30.22 "Hg7 mi
1:52 am38 °FFog.3 mph90%30.22 "Hg6 mi
12:52 am37 °FFog.3 mph93%30.21 "Hg5 mi
11:52 pm
Fri, Jan 18
38 °FOvercast.3 mph90%30.21 "Hg7 mi
10:52 pm38 °FFog.3 mph86%30.21 "Hg6 mi
9:52 pm39 °FOvercast.3 mph82%30.20 "Hg7 mi
8:52 pm39 °FOvercast.No wind86%30.20 "Hg7 mi
7:52 pm38 °FOvercast.3 mph86%30.18 "Hg7 mi
6:52 pm39 °FPassing clouds.3 mph82%30.16 "Hg9 mi
5:52 pm39 °FPassing clouds.3 mph82%30.13 "Hg9 mi
4:52 pm39 °FPartly sunny.8 mph82%30.11 "Hg8 mi
3:52 pm39 °FScattered clouds.7 mph82%30.11 "Hg8 mi
3:16 pm38 °FScattered clouds.8 mph86%30.11 "Hg7 mi
2:52 pm38 °FFog.8 mph86%30.09 "Hg6 mi
1:52 pm38 °FFog.5 mph86%30.09 "Hg4 mi
12:52 pm38 °FOvercast.No wind83%30.10 "Hg4 mi
11:52 am37 °FFog.5 mph86%30.12 "Hg4 mi
Weather by CustomWeather, © 2019

See weather overview